User: anonymous   Login
Location: Estes Par
(40.3770°N, 105.5210°W)
Time: 17:22:04
(UTC-06:00)
Language:

Oscar 11 - Orbit

View from above orbital plane
View from above orbital plane
View from above satellite
View from above satellite

Ground track
Ground track

The orbit data is extracted from the following two-line orbital elements,

1 14781U 84021B   18198.16020160  .00000053  00000-0  12682-4 0  9990
2 14781  97.6468 233.0945 0008202 355.4083   4.7055 14.83017723848882
Epoch (UTC): 17 July 2018 03:50:41
Eccentricity: 0.0008202
inclination: 97.6468°
perigee height: 614 km
apogee height: 625 km
right ascension of ascending node: 233.0945°
argument of perigee: 355.4083°
revolutions per day: 14.83017723
mean anomaly at epoch: 4.7055°
orbit number at epoch: 84888

The dashed part of the orbit path shows where the satellite is in the earth's shadow,  

DLR